Location: Praha
(50.0830°N, 14.4670°E)
Time: 04:18:03
(UTC+01:00)

ISS - Pass Details

Date: 20 February 2021
Orbit: 417 x 422 km, 51.6° (Epoch: 03 March)

Event Time Altitude Azimuth Distance (km) Brightness Sun altitude
Rises 05:30:14 0° 190° (S) 2,347 -0.1 -15.6°
Reaches altitude 10° 05:33:39 10° 152° (SSE) 1,490 -0.6 -15.1°
Maximum altitude 05:34:37 11° 135° (SE) 1,433 -0.4 -14.9°
Drops below altitude 10° 05:35:36 10° 118° (ESE) 1,494 0.0 -14.7°
Sets 05:39:02 0° 81° (E) 2,364 1.9 -14.2°
